contact:dominique.lefevre@mio.osupytheas.fr, maurice.libes@osupytheas.fr, didier.mallarino@osupytheas.fr
Project:EMSO http://www.emso-fr.org/EMSO-France
Depth: 2436.0 m
Title:EMSO Ligure Ouest : Data MII capteur CSTAR
DateTime,Latitude,Longitude,Instrument_Serial,Reference_Counts,Signal_Counts,Corrected_Signal_raw_counts,Calculated_Beam_c_inverse_meters,Internal_thermistor_counts
DateTime,Latitude,Longitude,Instrument_Serial,Reference_Counts,Signal_Counts,Corrected_Signal_raw_counts,Calculated_Beam_c_inverse_meters,Internal_thermistor_counts
2019-07-19T00:02:09,42.805,6.029,CST-1368DR,8622,12061,15466,0.039,551
2019-07-19T00:05:11,42.805,6.029,CST-1368DR,8622,12061,15466,0.039,551
2019-07-19T00:08:12,42.805,6.029,CST-1368DR,8622,12063,15468,0.038,550
2019-07-19T00:11:14,42.805,6.029,CST-1368DR,8622,12062,15467,0.038,551
2019-07-19T00:14:16,42.805,6.029,CST-1368DR,8622,12061,15465,0.039,551
2019-07-19T00:17:17,42.805,6.029,CST-1368DR,8622,12062,15467,0.038,551
2019-07-19T00:20:19,42.805,6.029,CST-1368DR,8622,12064,15469,0.038,551
2019-07-19T00:23:20,42.805,6.029,CST-1368DR,8622,12063,15467,0.038,551
2019-07-19T00:26:22,42.805,6.029,CST-1368DR,8622,12064,15469,0.038,551
2019-07-19T00:29:24,42.805,6.029,CST-1368DR,8622,12058,15461,0.040,550
2019-07-19T00:32:25,42.805,6.029,CST-1368DR,8622,12063,15467,0.038,551
2019-07-19T00:35:27,42.805,6.029,CST-1368DR,8622,12060,15464,0.039,551
2019-07-19T00:38:29,42.805,6.029,CST-1368DR,8622,12063,15467,0.038,550
2019-07-19T00:41:30,42.805,6.029,CST-1368DR,8621,12032,15430,0.048,551
2019-07-19T00:44:32,42.805,6.029,CST-1368DR,8622,12062,15467,0.038,551
2019-07-19T00:47:33,42.805,6.029,CST-1368DR,8622,12062,15466,0.039,551
2019-07-19T00:50:35,42.805,6.029,CST-1368DR,8622,12059,15462,0.040,551
2019-07-19T00:53:37,42.805,6.029,CST-1368DR,8622,12061,15465,0.039,551
2019-07-19T00:56:38,42.805,6.029,CST-1368DR,8622,12063,15468,0.038,551
2019-07-19T00:59:40,42.805,6.029,CST-1368DR,8622,12063,15467,0.038,550
2019-07-19T01:02:42,42.805,6.029,CST-1368DR,8622,12063,15468,0.038,551
2019-07-19T01:05:43,42.805,6.029,CST-1368DR,8622,12057,15460,0.040,551
2019-07-19T01:08:45,42.805,6.029,CST-1368DR,8622,12061,15465,0.039,551
2019-07-19T01:11:47,42.805,6.029,CST-1368DR,8622,12054,15457,0.041,551
2019-07-19T01:14:48,42.805,6.029,CST-1368DR,8621,11989,15375,0.062,550
2019-07-19T01:17:50,42.805,6.029,CST-1368DR,8621,12059,15465,0.039,551
2019-07-19T01:20:52,42.805,6.029,CST-1368DR,8621,12057,15462,0.040,551
2019-07-19T01:23:53,42.805,6.029,CST-1368DR,8621,11973,15355,0.067,551
2019-07-19T01:26:55,42.805,6.029,CST-1368DR,8622,12058,15461,0.040,551
2019-07-19T01:29:57,42.805,6.029,CST-1368DR,8622,12060,15465,0.039,551
2019-07-19T01:32:58,42.805,6.029,CST-1368DR,8622,12059,15463,0.039,551
2019-07-19T01:36:00,42.805,6.029,CST-1368DR,8621,12062,15468,0.038,550
2019-07-19T01:39:02,42.805,6.029,CST-1368DR,8621,12061,15467,0.038,551
2019-07-19T01:42:03,42.805,6.029,CST-1368DR,8621,12061,15467,0.038,551
2019-07-19T01:45:05,42.805,6.029,CST-1368DR,8621,12061,15467,0.038,551
2019-07-19T01:48:06,42.805,6.029,CST-1368DR,8621,12060,15466,0.039,551
2019-07-19T01:51:08,42.805,6.029,CST-1368DR,8621,12060,15465,0.039,551
2019-07-19T01:54:10,42.805,6.029,CST-1368DR,8621,12062,15468,0.038,551
2019-07-19T01:57:11,42.805,6.029,CST-1368DR,8621,12062,15469,0.038,551
2019-07-19T02:00:13,42.805,6.029,CST-1368DR,8621,12061,15466,0.039,551
2019-07-19T02:03:15,42.805,6.029,CST-1368DR,8621,12059,15465,0.039,551
2019-07-19T02:06:16,42.805,6.029,CST-1368DR,8621,12060,15466,0.039,550
2019-07-19T02:09:18,42.805,6.029,CST-1368DR,8621,12061,15467,0.038,551
2019-07-19T02:12:19,42.805,6.029,CST-1368DR,8621,12059,15465,0.039,551
2019-07-19T02:15:21,42.805,6.029,CST-1368DR,8621,12061,15467,0.038,550
2019-07-19T02:18:23,42.805,6.029,CST-1368DR,8621,12060,15466,0.039,551
2019-07-19T02:21:24,42.805,6.029,CST-1368DR,8621,12060,15466,0.039,551
2019-07-19T02:24:26,42.805,6.029,CST-1368DR,8621,12062,15469,0.038,551
2019-07-19T02:27:28,42.805,6.029,CST-1368DR,8621,12060,15466,0.039,551
2019-07-19T02:30:29,42.805,6.029,CST-1368DR,8621,12056,15461,0.040,551
2019-07-19T02:33:31,42.805,6.029,CST-1368DR,8621,12058,15463,0.039,551
2019-07-19T02:36:33,42.805,6.029,CST-1368DR,8621,12060,15466,0.039,551
2019-07-19T02:39:34,42.805,6.029,CST-1368DR,8621,12060,15466,0.039,551
2019-07-19T02:42:36,42.805,6.029,CST-1368DR,8621,12059,15465,0.039,551
2019-07-19T02:45:37,42.805,6.029,CST-1368DR,8621,12060,15466,0.039,551
2019-07-19T02:48:39,42.805,6.029,CST-1368DR,8621,12051,15454,0.042,551
2019-07-19T02:51:41,42.805,6.029,CST-1368DR,8620,12060,15468,0.038,551
2019-07-19T02:54:42,42.805,6.029,CST-1368DR,8620,12059,15466,0.039,551
2019-07-19T02:57:44,42.805,6.029,CST-1368DR,8621,12060,15466,0.039,551
2019-07-19T03:00:46,42.805,6.029,CST-1368DR,8621,12061,15467,0.038,551
2019-07-19T03:03:47,42.805,6.029,CST-1368DR,8621,12060,15465,0.039,551
2019-07-19T03:06:49,42.805,6.029,CST-1368DR,8621,12058,15463,0.039,551
2019-07-19T03:09:51,42.805,6.029,CST-1368DR,8620,12053,15458,0.041,551
2019-07-19T03:12:52,42.805,6.029,CST-1368DR,8620,12061,15468,0.038,551
2019-07-19T03:15:54,42.805,6.029,CST-1368DR,8620,12059,15466,0.039,551
2019-07-19T03:18:55,42.805,6.029,CST-1368DR,8620,12059,15466,0.039,551
2019-07-19T03:21:57,42.805,6.029,CST-1368DR,8620,12060,15467,0.038,551
2019-07-19T03:24:59,42.805,6.029,CST-1368DR,8620,12060,15467,0.038,550
2019-07-19T03:28:00,42.805,6.029,CST-1368DR,8620,12058,15465,0.039,551
2019-07-19T03:31:02,42.805,6.029,CST-1368DR,8620,12060,15467,0.038,551
2019-07-19T03:34:04,42.805,6.029,CST-1368DR,8620,12061,15469,0.038,551
2019-07-19T03:37:05,42.805,6.029,CST-1368DR,8620,12061,15469,0.038,551
2019-07-19T03:40:07,42.805,6.029,CST-1368DR,8620,12060,15467,0.038,551
2019-07-19T03:43:09,42.805,6.029,CST-1368DR,8620,12057,15463,0.039,551
2019-07-19T03:46:10,42.805,6.029,CST-1368DR,8620,12060,15467,0.038,551
2019-07-19T03:49:12,42.805,6.029,CST-1368DR,8620,12059,15466,0.039,551
2019-07-19T03:52:13,42.805,6.029,CST-1368DR,8620,12059,15466,0.039,551
2019-07-19T03:55:15,42.805,6.029,CST-1368DR,8620,12060,15467,0.038,551
2019-07-19T03:58:17,42.805,6.029,CST-1368DR,8620,12059,15466,0.039,551
2019-07-19T04:01:18,42.805,6.029,CST-1368DR,8620,12059,15466,0.039,551
2019-07-19T04:04:20,42.805,6.029,CST-1368DR,8620,12056,15462,0.040,551
2019-07-19T04:07:22,42.805,6.029,CST-1368DR,8620,12059,15467,0.038,551
2019-07-19T04:10:23,42.805,6.029,CST-1368DR,8620,12058,15464,0.039,551
2019-07-19T04:13:25,42.805,6.029,CST-1368DR,8620,12059,15466,0.039,551
2019-07-19T04:16:26,42.805,6.029,CST-1368DR,8620,12056,15463,0.039,551
2019-07-19T04:19:28,42.805,6.029,CST-1368DR,8620,12049,15453,0.042,551
2019-07-19T04:22:30,42.805,6.029,CST-1368DR,8620,12058,15465,0.039,551
2019-07-19T04:25:31,42.805,6.029,CST-1368DR,8620,12058,15465,0.039,551
2019-07-19T04:28:33,42.805,6.029,CST-1368DR,8620,12056,15462,0.040,551
2019-07-19T04:31:35,42.805,6.029,CST-1368DR,8620,12057,15463,0.039,551
2019-07-19T04:34:36,42.805,6.029,CST-1368DR,8620,12057,15463,0.039,550
2019-07-19T04:37:38,42.805,6.029,CST-1368DR,8620,12054,15460,0.040,551
2019-07-19T04:40:39,42.805,6.029,CST-1368DR,8620,12058,15465,0.039,551
2019-07-19T04:43:41,42.805,6.029,CST-1368DR,8620,12058,15465,0.039,551
2019-07-19T04:46:43,42.805,6.029,CST-1368DR,8620,12057,15464,0.039,551
2019-07-19T04:49:44,42.805,6.029,CST-1368DR,8620,12060,15467,0.038,551
2019-07-19T04:52:46,42.805,6.029,CST-1368DR,8620,12057,15464,0.039,551
2019-07-19T04:55:48,42.805,6.029,CST-1368DR,8620,12056,15462,0.040,551
2019-07-19T04:58:49,42.805,6.029,CST-1368DR,8620,12057,15463,0.039,551
2019-07-19T05:01:51,42.805,6.029,CST-1368DR,8619,12056,15464,0.039,551
2019-07-19T05:04:53,42.805,6.029,CST-1368DR,8619,12058,15467,0.038,551
2019-07-19T05:07:54,42.805,6.029,CST-1368DR,8619,12060,15469,0.038,551
2019-07-19T05:10:56,42.805,6.029,CST-1368DR,8620,12059,15466,0.039,550
2019-07-19T05:13:58,42.805,6.029,CST-1368DR,8619,12058,15466,0.039,551
2019-07-19T05:16:59,42.805,6.029,CST-1368DR,8619,12059,15467,0.038,551
2019-07-19T05:20:01,42.805,6.029,CST-1368DR,8619,12056,15464,0.039,551
2019-07-19T05:23:03,42.805,6.029,CST-1368DR,8620,12057,15463,0.039,551
2019-07-19T05:26:05,42.805,6.029,CST-1368DR,8619,12059,15468,0.038,551
2019-07-19T05:29:06,42.805,6.029,CST-1368DR,8619,12043,15447,0.044,551
2019-07-19T05:32:08,42.805,6.029,CST-1368DR,8619,12056,15464,0.039,551
2019-07-19T05:35:10,42.805,6.029,CST-1368DR,8619,12058,15466,0.039,551
2019-07-19T05:38:11,42.805,6.029,CST-1368DR,8619,12055,15462,0.040,551
2019-07-19T05:41:13,42.805,6.029,CST-1368DR,8619,12059,15467,0.038,551
2019-07-19T05:44:14,42.805,6.029,CST-1368DR,8619,12057,15465,0.039,551
2019-07-19T05:47:16,42.805,6.029,CST-1368DR,8619,12058,15466,0.039,550
2019-07-19T05:50:18,42.805,6.029,CST-1368DR,8619,12059,15468,0.038,551
2019-07-19T05:53:19,42.805,6.029,CST-1368DR,8619,12059,15468,0.038,551
2019-07-19T05:56:21,42.805,6.029,CST-1368DR,8619,12056,15464,0.039,551
2019-07-19T05:59:22,42.805,6.029,CST-1368DR,8619,12056,15464,0.039,551
2019-07-19T06:02:24,42.805,6.029,CST-1368DR,8619,12059,15467,0.038,551
2019-07-19T06:05:26,42.805,6.029,CST-1368DR,8619,12058,15467,0.038,551
2019-07-19T06:08:27,42.805,6.029,CST-1368DR,8619,12057,15465,0.039,551
2019-07-19T06:11:29,42.805,6.029,CST-1368DR,8619,12057,15465,0.039,551
2019-07-19T06:14:31,42.805,6.029,CST-1368DR,8619,12057,15466,0.039,551
2019-07-19T06:17:32,42.805,6.029,CST-1368DR,8619,12056,15464,0.039,551
2019-07-19T06:20:34,42.805,6.029,CST-1368DR,8619,12049,15455,0.041,551
2019-07-19T06:23:36,42.805,6.029,CST-1368DR,8619,12050,15456,0.041,550
2019-07-19T06:26:37,42.805,6.029,CST-1368DR,8619,12058,15467,0.038,551
2019-07-19T06:29:39,42.805,6.029,CST-1368DR,8619,12049,15455,0.041,550
2019-07-19T06:32:40,42.805,6.029,CST-1368DR,8619,12058,15466,0.039,551
2019-07-19T06:35:42,42.805,6.029,CST-1368DR,8619,12056,15463,0.039,551
2019-07-19T06:38:44,42.805,6.029,CST-1368DR,8619,12058,15466,0.039,551
2019-07-19T06:41:45,42.805,6.029,CST-1368DR,8619,12052,15459,0.040,551
2019-07-19T06:44:47,42.805,6.029,CST-1368DR,8619,12057,15465,0.039,551
2019-07-19T06:47:49,42.805,6.029,CST-1368DR,8619,12057,15465,0.039,551
2019-07-19T06:50:50,42.805,6.029,CST-1368DR,8619,12058,15466,0.039,551
2019-07-19T06:53:52,42.805,6.029,CST-1368DR,8619,12058,15467,0.038,551
2019-07-19T06:56:54,42.805,6.029,CST-1368DR,8619,12055,15463,0.039,551
2019-07-19T06:59:55,42.805,6.029,CST-1368DR,8619,12058,15466,0.039,551
2019-07-19T07:02:57,42.805,6.029,CST-1368DR,8618,12058,15468,0.038,551
2019-07-19T07:05:59,42.805,6.029,CST-1368DR,8618,12053,15461,0.040,551
2019-07-19T07:09:00,42.805,6.029,CST-1368DR,8619,12057,15465,0.039,551
2019-07-19T07:12:02,42.805,6.029,CST-1368DR,8618,12057,15467,0.038,551
2019-07-19T07:15:03,42.805,6.029,CST-1368DR,8618,12057,15467,0.038,551
2019-07-19T07:18:05,42.805,6.029,CST-1368DR,8618,12055,15465,0.039,550
2019-07-19T07:21:07,42.805,6.029,CST-1368DR,8618,12052,15461,0.040,551
2019-07-19T07:24:08,42.805,6.029,CST-1368DR,8618,12057,15467,0.038,551
2019-07-19T07:27:10,42.805,6.029,CST-1368DR,8618,12056,15466,0.039,551
2019-07-19T07:30:12,42.805,6.029,CST-1368DR,8618,12056,15466,0.039,551
2019-07-19T07:33:14,42.805,6.029,CST-1368DR,8618,12054,15463,0.039,551
2019-07-19T07:36:15,42.805,6.029,CST-1368DR,8618,12057,15467,0.038,551
2019-07-19T07:39:17,42.805,6.029,CST-1368DR,8618,12056,15466,0.039,551
2019-07-19T07:42:18,42.805,6.029,CST-1368DR,8618,12055,15464,0.039,551
2019-07-19T07:45:20,42.805,6.029,CST-1368DR,8618,12057,15467,0.038,551
2019-07-19T07:48:22,42.805,6.029,CST-1368DR,8618,12053,15462,0.040,551
2019-07-19T07:51:23,42.805,6.029,CST-1368DR,8618,12053,15462,0.040,551
2019-07-19T07:54:25,42.805,6.029,CST-1368DR,8618,12055,15465,0.039,551
2019-07-19T07:57:27,42.805,6.029,CST-1368DR,8618,12057,15466,0.039,551
2019-07-19T08:00:28,42.805,6.029,CST-1368DR,8618,12057,15466,0.039,551
2019-07-19T08:03:30,42.805,6.029,CST-1368DR,8618,12056,15465,0.039,551
2019-07-19T08:06:32,42.805,6.029,CST-1368DR,8618,12049,15456,0.041,551
2019-07-19T08:09:33,42.805,6.029,CST-1368DR,8618,12052,15461,0.040,551
2019-07-19T08:12:35,42.805,6.029,CST-1368DR,8618,12054,15463,0.039,550
2019-07-19T08:15:37,42.805,6.029,CST-1368DR,8618,12057,15467,0.038,551
2019-07-19T08:18:38,42.805,6.029,CST-1368DR,8618,12048,15455,0.041,551
2019-07-19T08:21:40,42.805,6.029,CST-1368DR,8618,12057,15467,0.038,551
2019-07-19T08:24:42,42.805,6.029,CST-1368DR,8618,12057,15467,0.038,551
2019-07-19T08:27:43,42.805,6.029,CST-1368DR,8618,12056,15465,0.039,551
2019-07-19T08:30:45,42.805,6.029,CST-1368DR,8618,12056,15466,0.039,551
2019-07-19T08:33:47,42.805,6.029,CST-1368DR,8618,12054,15463,0.039,551
2019-07-19T08:40:06,42.805,6.029,CST-1368DR,8612,12046,15462,0.040,552
2019-07-19T08:43:08,42.805,6.029,CST-1368DR,8616,12054,15466,0.039,551
2019-07-19T08:46:10,42.805,6.029,CST-1368DR,8617,12056,15467,0.038,551
2019-07-19T08:49:11,42.805,6.029,CST-1368DR,8617,12056,15467,0.038,551
2019-07-19T08:52:13,42.805,6.029,CST-1368DR,8617,12057,15468,0.038,551
2019-07-19T08:55:15,42.805,6.029,CST-1368DR,8617,12055,15466,0.039,551
2019-07-19T08:58:16,42.805,6.029,CST-1368DR,8617,12052,15463,0.039,551
2019-07-19T09:01:18,42.805,6.029,CST-1368DR,8617,12053,15463,0.039,551
2019-07-19T09:04:19,42.805,6.029,CST-1368DR,8617,12053,15464,0.039,551
2019-07-19T09:07:21,42.805,6.029,CST-1368DR,8617,12056,15467,0.038,551
2019-07-19T09:10:23,42.805,6.029,CST-1368DR,8617,12056,15467,0.038,551
2019-07-19T09:13:24,42.805,6.029,CST-1368DR,8617,12056,15467,0.038,551
2019-07-19T09:16:26,42.805,6.029,CST-1368DR,8617,12056,15467,0.038,551
2019-07-19T09:19:28,42.805,6.029,CST-1368DR,8617,12055,15466,0.039,550
2019-07-19T09:22:29,42.805,6.029,CST-1368DR,8617,12054,15465,0.039,551
2019-07-19T09:25:31,42.805,6.029,CST-1368DR,8617,12056,15467,0.038,551
2019-07-19T09:28:33,42.805,6.029,CST-1368DR,8617,12055,15465,0.039,551
2019-07-19T09:31:34,42.805,6.029,CST-1368DR,8617,12055,15466,0.039,551
2019-07-19T09:34:36,42.805,6.029,CST-1368DR,8617,12056,15467,0.038,551
2019-07-19T09:37:37,42.805,6.029,CST-1368DR,8617,12053,15463,0.039,551
2019-07-19T09:40:39,42.805,6.029,CST-1368DR,8617,12053,15464,0.039,551
2019-07-19T09:43:41,42.805,6.029,CST-1368DR,8617,12056,15467,0.038,551
2019-07-19T09:46:42,42.805,6.029,CST-1368DR,8617,12054,15464,0.039,551
2019-07-19T09:49:44,42.805,6.029,CST-1368DR,8617,12056,15468,0.038,550
2019-07-19T09:52:46,42.805,6.029,CST-1368DR,8617,12051,15461,0.040,550
2019-07-19T09:55:47,42.805,6.029,CST-1368DR,8617,12056,15467,0.038,551
2019-07-19T09:58:49,42.805,6.029,CST-1368DR,8617,12055,15466,0.039,551
2019-07-19T10:01:51,42.805,6.029,CST-1368DR,8617,12056,15467,0.038,551
2019-07-19T10:04:52,42.805,6.029,CST-1368DR,8617,12056,15467,0.038,551
2019-07-19T10:07:54,42.805,6.029,CST-1368DR,8617,12055,15465,0.039,551
2019-07-19T10:10:56,42.805,6.029,CST-1368DR,8617,12054,15465,0.039,551
2019-07-19T10:13:57,42.805,6.029,CST-1368DR,8617,12055,15466,0.039,551
2019-07-19T10:16:59,42.805,6.029,CST-1368DR,8617,12051,15461,0.040,551
2019-07-19T10:20:01,42.805,6.029,CST-1368DR,8617,12056,15467,0.038,551
2019-07-19T10:23:02,42.805,6.029,CST-1368DR,8617,12049,15459,0.040,550
2019-07-19T10:26:04,42.805,6.029,CST-1368DR,8617,12056,15467,0.038,551
2019-07-19T10:29:05,42.805,6.029,CST-1368DR,8617,12055,15466,0.039,551
2019-07-19T10:32:07,42.805,6.029,CST-1368DR,8617,12056,15467,0.038,551
2019-07-19T10:35:09,42.805,6.029,CST-1368DR,8616,12055,15467,0.038,551
2019-07-19T10:38:10,42.805,6.029,CST-1368DR,8616,12055,15468,0.038,551
2019-07-19T10:41:12,42.805,6.029,CST-1368DR,8616,12054,15466,0.039,551
2019-07-19T10:44:14,42.805,6.029,CST-1368DR,8616,12054,15466,0.039,551
2019-07-19T10:47:15,42.805,6.029,CST-1368DR,8616,12054,15466,0.039,551
2019-07-19T10:50:17,42.805,6.029,CST-1368DR,8616,12053,15465,0.039,551
2019-07-19T10:53:19,42.805,6.029,CST-1368DR,8616,12053,15465,0.039,551
2019-07-19T10:56:20,42.805,6.029,CST-1368DR,8616,12055,15468,0.038,550
2019-07-19T10:59:22,42.805,6.029,CST-1368DR,8616,12054,15466,0.039,551
2019-07-19T11:02:24,42.805,6.029,CST-1368DR,8616,12053,15465,0.039,551
2019-07-19T11:05:25,42.805,6.029,CST-1368DR,8616,12054,15466,0.039,551
2019-07-19T11:08:27,42.805,6.029,CST-1368DR,8616,12052,15464,0.039,551
2019-07-19T11:11:28,42.805,6.029,CST-1368DR,8616,12054,15466,0.039,551
2019-07-19T11:14:30,42.805,6.029,CST-1368DR,8616,12053,15465,0.039,551
2019-07-19T11:17:32,42.805,6.029,CST-1368DR,8616,12054,15467,0.038,551
2019-07-19T11:20:33,42.805,6.029,CST-1368DR,8616,12054,15467,0.038,551
2019-07-19T11:23:35,42.805,6.029,CST-1368DR,8616,12053,15465,0.039,551
2019-07-19T11:26:37,42.805,6.029,CST-1368DR,8616,12053,15464,0.039,551
2019-07-19T11:29:38,42.805,6.029,CST-1368DR,8616,12053,15465,0.039,551
2019-07-19T11:32:40,42.805,6.029,CST-1368DR,8616,12051,15462,0.040,551
2019-07-19T11:35:42,42.805,6.029,CST-1368DR,8616,12045,15454,0.042,551
2019-07-19T11:38:43,42.805,6.029,CST-1368DR,8616,12054,15467,0.038,550
2019-07-19T11:41:45,42.805,6.029,CST-1368DR,8616,12053,15465,0.039,551
2019-07-19T11:44:46,42.805,6.029,CST-1368DR,8616,12051,15463,0.039,551
2019-07-19T11:47:48,42.805,6.029,CST-1368DR,8616,12054,15466,0.039,551
2019-07-19T11:50:50,42.805,6.029,CST-1368DR,8616,12054,15466,0.039,551
2019-07-19T11:53:52,42.805,6.029,CST-1368DR,8616,12048,15458,0.041,551
2019-07-19T11:56:53,42.805,6.029,CST-1368DR,8616,12052,15464,0.039,551
2019-07-19T11:59:55,42.805,6.029,CST-1368DR,8615,12054,15467,0.038,551
2019-07-19T12:02:56,42.805,6.029,CST-1368DR,8615,12050,15463,0.039,551
2019-07-19T12:05:58,42.805,6.029,CST-1368DR,8615,12053,15466,0.039,551
2019-07-19T12:09:00,42.805,6.029,CST-1368DR,8615,12053,15467,0.038,551
2019-07-19T12:12:01,42.805,6.029,CST-1368DR,8615,12053,15467,0.038,551
2019-07-19T12:15:03,42.805,6.029,CST-1368DR,8615,12051,15464,0.039,551
2019-07-19T12:18:05,42.805,6.029,CST-1368DR,8615,12053,15466,0.039,551
2019-07-19T12:21:06,42.805,6.029,CST-1368DR,8615,12052,15465,0.039,551
2019-07-19T12:24:08,42.805,6.029,CST-1368DR,8615,12051,15465,0.039,551
2019-07-19T12:27:10,42.805,6.029,CST-1368DR,8615,12054,15468,0.038,551
2019-07-19T12:30:11,42.805,6.029,CST-1368DR,8615,12054,15468,0.038,551
2019-07-19T12:33:13,42.805,6.029,CST-1368DR,8615,12051,15464,0.039,551
2019-07-19T12:36:14,42.805,6.029,CST-1368DR,8615,12053,15466,0.039,551
2019-07-19T12:39:16,42.805,6.029,CST-1368DR,8615,12051,15465,0.039,551
2019-07-19T12:42:18,42.805,6.029,CST-1368DR,8615,12051,15465,0.039,551
2019-07-19T12:45:19,42.805,6.029,CST-1368DR,8615,12050,15463,0.039,551
2019-07-19T12:48:21,42.805,6.029,CST-1368DR,8615,12053,15466,0.039,551
2019-07-19T12:51:23,42.805,6.029,CST-1368DR,8615,12053,15467,0.038,551
2019-07-19T12:54:24,42.805,6.029,CST-1368DR,8615,12051,15464,0.039,551
2019-07-19T12:57:26,42.805,6.029,CST-1368DR,8615,12053,15466,0.039,551
2019-07-19T13:00:27,42.805,6.029,CST-1368DR,8615,12048,15460,0.040,551
2019-07-19T13:03:29,42.805,6.029,CST-1368DR,8615,12052,15465,0.039,551
2019-07-19T13:06:31,42.805,6.029,CST-1368DR,8615,12049,15462,0.040,551
2019-07-19T13:09:32,42.805,6.029,CST-1368DR,8615,12046,15458,0.041,551
2019-07-19T13:12:34,42.805,6.029,CST-1368DR,8615,12050,15463,0.039,551
2019-07-19T13:15:36,42.805,6.029,CST-1368DR,8615,12048,15461,0.040,551
2019-07-19T13:18:37,42.805,6.029,CST-1368DR,8615,12052,15466,0.039,551
2019-07-19T13:21:39,42.805,6.029,CST-1368DR,8615,12054,15467,0.038,551
2019-07-19T13:24:41,42.805,6.029,CST-1368DR,8615,12054,15467,0.038,551
2019-07-19T13:27:42,42.805,6.029,CST-1368DR,8614,12051,15465,0.039,551
2019-07-19T13:30:44,42.805,6.029,CST-1368DR,8615,12046,15458,0.041,551
2019-07-19T13:33:46,42.805,6.029,CST-1368DR,8614,12051,15465,0.039,551
2019-07-19T13:36:47,42.805,6.029,CST-1368DR,8615,12052,15466,0.039,550
2019-07-19T13:39:49,42.805,6.029,CST-1368DR,8615,12052,15466,0.039,551
2019-07-19T13:42:50,42.805,6.029,CST-1368DR,8614,12051,15466,0.039,551
2019-07-19T13:45:52,42.805,6.029,CST-1368DR,8615,12052,15465,0.039,551
2019-07-19T13:48:54,42.805,6.029,CST-1368DR,8615,12050,15462,0.040,551
2019-07-19T13:51:55,42.805,6.029,CST-1368DR,8615,12052,15465,0.039,551
2019-07-19T13:54:57,42.805,6.029,CST-1368DR,8614,12053,15468,0.038,551
2019-07-19T13:57:59,42.805,6.029,CST-1368DR,8614,12050,15464,0.039,551
2019-07-19T14:01:00,42.805,6.029,CST-1368DR,8614,12052,15467,0.038,551
2019-07-19T14:04:02,42.805,6.029,CST-1368DR,8614,12051,15466,0.039,551
2019-07-19T14:07:03,42.805,6.029,CST-1368DR,8614,12050,15465,0.039,551
2019-07-19T14:10:05,42.805,6.029,CST-1368DR,8614,12050,15465,0.039,551
2019-07-19T14:13:07,42.805,6.029,CST-1368DR,8614,12052,15467,0.038,551
2019-07-19T14:16:08,42.805,6.029,CST-1368DR,8614,12049,15463,0.039,551
2019-07-19T14:19:10,42.805,6.029,CST-1368DR,8614,12051,15466,0.039,551
2019-07-19T14:22:12,42.805,6.029,CST-1368DR,8614,12051,15466,0.039,551
2019-07-19T14:25:13,42.805,6.029,CST-1368DR,8614,12051,15466,0.039,551
2019-07-19T14:28:15,42.805,6.029,CST-1368DR,8614,12051,15465,0.039,551
2019-07-19T14:31:17,42.805,6.029,CST-1368DR,8614,12052,15467,0.038,550
2019-07-19T14:34:18,42.805,6.029,CST-1368DR,8614,12049,15463,0.039,550
2019-07-19T14:37:20,42.805,6.029,CST-1368DR,8614,12044,15457,0.041,551
2019-07-19T14:40:22,42.805,6.029,CST-1368DR,8614,12050,15465,0.039,551
2019-07-19T14:43:23,42.805,6.029,CST-1368DR,8614,12050,15464,0.039,551
2019-07-19T14:46:25,42.805,6.029,CST-1368DR,8614,12051,15466,0.039,551
2019-07-19T14:49:27,42.805,6.029,CST-1368DR,8614,12047,15461,0.040,550
2019-07-19T14:52:28,42.805,6.029,CST-1368DR,8614,12043,15455,0.041,551
2019-07-19T14:55:30,42.805,6.029,CST-1368DR,8614,12047,15460,0.040,550
2019-07-19T14:58:31,42.805,6.029,CST-1368DR,8614,12051,15466,0.039,551
2019-07-19T15:01:33,42.805,6.029,CST-1368DR,8614,12050,15464,0.039,551
2019-07-19T15:04:35,42.805,6.029,CST-1368DR,8614,12051,15465,0.039,551
2019-07-19T15:07:36,42.805,6.029,CST-1368DR,8614,12051,15466,0.039,551
2019-07-19T15:10:38,42.805,6.029,CST-1368DR,8614,12050,15464,0.039,550
2019-07-19T15:13:40,42.805,6.029,CST-1368DR,8614,12049,15463,0.039,551
2019-07-19T15:16:41,42.805,6.029,CST-1368DR,8614,12050,15464,0.039,550
2019-07-19T15:19:43,42.805,6.029,CST-1368DR,8614,12049,15463,0.039,551
2019-07-19T15:22:45,42.805,6.029,CST-1368DR,8614,12052,15467,0.038,551
2019-07-19T15:25:46,42.805,6.029,CST-1368DR,8614,12050,15465,0.039,551
2019-07-19T15:28:48,42.805,6.029,CST-1368DR,8614,12050,15465,0.039,551
2019-07-19T15:31:50,42.805,6.029,CST-1368DR,8614,12048,15462,0.040,551
2019-07-19T15:34:51,42.805,6.029,CST-1368DR,8614,12051,15466,0.039,551
2019-07-19T15:37:53,42.805,6.029,CST-1368DR,8614,12048,15462,0.040,551
2019-07-19T15:40:55,42.805,6.029,CST-1368DR,8614,12051,15466,0.039,551
2019-07-19T15:43:56,42.805,6.029,CST-1368DR,8614,12053,15468,0.038,551
2019-07-19T15:46:58,42.805,6.029,CST-1368DR,8614,12049,15463,0.039,551
2019-07-19T15:50:00,42.805,6.029,CST-1368DR,8614,12051,15466,0.039,551
2019-07-19T15:53:01,42.805,6.029,CST-1368DR,8613,12049,15465,0.039,551
2019-07-19T15:56:03,42.805,6.029,CST-1368DR,8613,12048,15463,0.039,551
2019-07-19T15:59:05,42.805,6.029,CST-1368DR,8614,12050,15464,0.039,550
2019-07-19T16:02:06,42.805,6.029,CST-1368DR,8613,12049,15465,0.039,551
2019-07-19T16:05:08,42.805,6.029,CST-1368DR,8613,12050,15466,0.039,551
2019-07-19T16:08:10,42.805,6.029,CST-1368DR,8613,12048,15463,0.039,551
2019-07-19T16:11:11,42.805,6.029,CST-1368DR,8613,12049,15465,0.039,551
2019-07-19T16:14:13,42.805,6.029,CST-1368DR,8613,12050,15467,0.038,551
2019-07-19T16:17:14,42.805,6.029,CST-1368DR,8613,12051,15467,0.038,551
2019-07-19T16:20:16,42.805,6.029,CST-1368DR,8613,12052,15468,0.038,551
2019-07-19T16:23:18,42.805,6.029,CST-1368DR,8613,12049,15465,0.039,551
2019-07-19T16:26:19,42.805,6.029,CST-1368DR,8613,12049,15465,0.039,551
2019-07-19T16:29:21,42.805,6.029,CST-1368DR,8613,12046,15461,0.040,551
2019-07-19T16:32:23,42.805,6.029,CST-1368DR,8613,12048,15463,0.039,550
2019-07-19T16:35:24,42.805,6.029,CST-1368DR,8613,12051,15467,0.038,551
2019-07-19T16:38:26,42.805,6.029,CST-1368DR,8613,12041,15455,0.041,551
2019-07-19T16:41:28,42.805,6.029,CST-1368DR,8613,12045,15460,0.040,551